Overview Statistics Trail Chart Weather Telemetry Raw packets
 

This is the latest recevied weather packets stored in our database for station/object NI4CE-11. If no packets are shown the sender has not sent any weather packets the latest 10 day(s).

<< 144 145 146 147 148 149 150 >>
Time Temp. Humidity Pressure Rain* Wind** Luminosity Snow
1787788550 28.33° C 100% 1015.8 hPa 0 mm - - -
1787788464 28.33° C 100% 1015.8 hPa 0 mm - - -
1787788164 31.11° C 100% 1015.7 hPa 0 mm - - -
1787787864 31.11° C 100% 1015.6 hPa 0 mm - - -
1787787564 32.78° C 100% 1015.6 hPa 0 mm - - -
1787787265 32.22° C 100% 1015.5 hPa 0 mm - - -
1787787113 32.78° C 100% 1015.5 hPa 0 mm - - -
1787786964 32.78° C 100% 1015.5 hPa 0 mm - - -
1787786664 32.78° C 100% 1015.4 hPa 0 mm - - -
1787786513 32.78° C 100% 1015.3 hPa 0 mm - - -
1787786364 32.78° C 100% 1015.3 hPa 0 mm - - -
1787786064 32.78° C 100% 1015.2 hPa 0 mm - - -
1787785896 33.33° C 100% 1015.2 hPa 0 mm - - -
1787785764 33.33° C 100% 1015.2 hPa 0 mm - - -
1787785464 33.33° C 100% 1015.2 hPa 0 mm - - -
1787785257 33.33° C 100% 1015.3 hPa 0 mm - - -
1787785164 33.33° C 100% 1015.3 hPa 0 mm - - -
1787784864 33.33° C 100% 1015 hPa 0 mm - - -
1787784564 33.33° C 100% 1014.9 hPa 0 mm - - -
1787784264 32.78° C 100% 1014.7 hPa 0 mm - - -
1787783970 32.78° C - - 0 mm - - -
1787783964 32.78° C 100% 1014.7 hPa 0 mm - - -
1787783664 33.33° C 100% 1014.6 hPa 0 mm - - -
1787783504 32.78° C 100% 1014.6 hPa 0 mm - - -
1787783364 32.78° C 100% 1014.6 hPa 0 mm - - -

* Rain latest hour (hover to see other rain measurements)
** Current wind speed in m/s (hover to see current wind gust speed)